• en Suisse
  • Liste des pays
  • À 7 jours
  • Température de l'eau
  • Carte satellitaire
  • Carte météo
  • Widgets météo
  • user-avatar
    Se connecter

    Météo par heure à Serekhovychi

    Ce jour, 24 Septembre, Lundi

    Heure Température Précipitation Vent Pression Humidité
    00:00 +10°C° 3.2 mm 5 m/s 739 mmHg 81%
    01:00 +10°C° 3.2 mm 5 m/s 737 mmHg 83%
    02:00 +11°C° 0 mm 4 m/s 736 mmHg 88%
    03:00 +12°C° 1.5 mm 5 m/s 735 mmHg 88%
    04:00 +12°C° 1.5 mm 7 m/s 734 mmHg 87%
    05:00 +12°C° 1.5 mm 8 m/s 733 mmHg 87%
    06:00 +12°C° 0.2 mm 9 m/s 734 mmHg 86%
    07:00 +11°C° 0.2 mm 9 m/s 735 mmHg 85%
    08:00 +9°C° 0 mm 10 m/s 736 mmHg 85%
    09:00 +8°C° 0.1 mm 10 m/s 737 mmHg 82%
    10:00 +8°C° 0.1 mm 10 m/s 739 mmHg 78%
    11:00 +8°C° 0.1 mm 10 m/s 740 mmHg 75%
    12:00 +9°C° 0.1 mm 10 m/s 741 mmHg 72%
    13:00 +9°C° 0.1 mm 10 m/s 742 mmHg 69%
    14:00 +11°C° 0.1 mm 9 m/s 743 mmHg 66%
    15:00 +10°C° 0.2 mm 9 m/s 743 mmHg 67%
    16:00 +10°C° 0.2 mm 8 m/s 743 mmHg 69%
    17:00 +10°C° 0.2 mm 8 m/s 744 mmHg 70%
    18:00 +9°C° 0.1 mm 7 m/s 744 mmHg 72%
    19:00 +8°C° 0.1 mm 7 m/s 744 mmHg 74%
    20:00 +8°C° 0.1 mm 6 m/s 745 mmHg 76%
    21:00 +7°C° 0 mm 6 m/s 745 mmHg 77%
    22:00 +7°C° 0 mm 6 m/s 746 mmHg 78%
    23:00 +7°C° 0 mm 6 m/s 746 mmHg 79%

    Demain, 25 Septembre, Mardi

    Heure Température Précipitation Vent Pression Humidité
    00:00 +5°C° 0 mm 6 m/s 747 mmHg 80%
    01:00 +5°C° 0 mm 6 m/s 747 mmHg 80%
    02:00 +4°C° 0 mm 6 m/s 748 mmHg 80%
    03:00 +4°C° 0 mm 6 m/s 748 mmHg 81%
    04:00 +4°C° 0 mm 6 m/s 749 mmHg 82%
    05:00 +3°C° 0 mm 5 m/s 749 mmHg 82%
    06:00 +4°C° 0 mm 6 m/s 750 mmHg 80%
    07:00 +4°C° 0 mm 6 m/s 751 mmHg 78%
    08:00 +5°C° 0 mm 6 m/s 751 mmHg 75%
    09:00 +6°C° 0 mm 7 m/s 752 mmHg 69%
    10:00 +8°C° 0 mm 7 m/s 753 mmHg 62%
    11:00 +10°C° 0 mm 7 m/s 753 mmHg 55%
    12:00 +10°C° 0.2 mm 7 m/s 753 mmHg 54%
    13:00 +10°C° 0.2 mm 7 m/s 754 mmHg 54%
    14:00 +10°C° 0.2 mm 7 m/s 754 mmHg 53%
    15:00 +10°C° 0.1 mm 7 m/s 754 mmHg 56%
    16:00 +9°C° 0.1 mm 6 m/s 755 mmHg 59%
    17:00 +9°C° 0.1 mm 5 m/s 755 mmHg 62%
    18:00 +8°C° 0.1 mm 5 m/s 756 mmHg 66%
    19:00 +7°C° 0.1 mm 4 m/s 756 mmHg 70%
    20:00 +6°C° 0.1 mm 4 m/s 757 mmHg 74%
    21:00 +6°C° 0 mm 4 m/s 757 mmHg 76%
    22:00 +5°C° 0 mm 4 m/s 758 mmHg 77%
    23:00 +5°C° 0 mm 4 m/s 759 mmHg 79%

    Après-demain, 26 Septembre, Mercredi

    Heure Température Précipitation Vent Pression Humidité
    00:00 +4°C° 0 mm 4 m/s 759 mmHg 81%
    01:00 +4°C° 0 mm 3 m/s 759 mmHg 82%
    02:00 +3°C° 0 mm 3 m/s 760 mmHg 84%
    03:00 +3°C° 0 mm 3 m/s 760 mmHg 85%
    04:00 +3°C° 0 mm 3 m/s 760 mmHg 87%
    05:00 +2°C° 0 mm 3 m/s 761 mmHg 88%
    06:00 +3°C° 0 mm 3 m/s 761 mmHg 85%
    07:00 +4°C° 0 mm 3 m/s 761 mmHg 81%
    08:00 +4°C° 0 mm 3 m/s 761 mmHg 77%
    09:00 +7°C° 0 mm 3 m/s 761 mmHg 69%
    10:00 +9°C° 0 mm 3 m/s 761 mmHg 60%
    11:00 +11°C° 0 mm 4 m/s 761 mmHg 51%
    12:00 +12°C° 0 mm 4 m/s 761 mmHg 50%
    13:00 +12°C° 0 mm 5 m/s 760 mmHg 48%
    14:00 +13°C° 0 mm 5 m/s 760 mmHg 47%
    15:00 +12°C° 0 mm 5 m/s 759 mmHg 51%
    16:00 +12°C° 0 mm 4 m/s 758 mmHg 54%
    17:00 +12°C° 0 mm 3 m/s 758 mmHg 58%
    18:00 +11°C° 0 mm 4 m/s 758 mmHg 58%
    19:00 +11°C° 0 mm 4 m/s 757 mmHg 58%
    20:00 +10°C° 0 mm 4 m/s 757 mmHg 57%
    21:00 +9°C° 0 mm 5 m/s 757 mmHg 57%
    22:00 +9°C° 0 mm 5 m/s 756 mmHg 56%
    23:00 +9°C° 0 mm 5 m/s 756 mmHg 55%

    27 Septembre, Jeudi

    Heure Température Précipitation Vent Pression Humidité
    00:00 +9°C° 0 mm 5 m/s 755 mmHg 55%
    01:00 +9°C° 0 mm 6 m/s 755 mmHg 55%
    02:00 +10°C° 0 mm 6 m/s 754 mmHg 55%
    03:00 +10°C° 0 mm 6 m/s 754 mmHg 55%
    04:00 +10°C° 0 mm 6 m/s 753 mmHg 54%
    05:00 +10°C° 0 mm 6 m/s 753 mmHg 54%
    06:00 +10°C° 0 mm 7 m/s 753 mmHg 55%
    07:00 +10°C° 0 mm 7 m/s 753 mmHg 56%
    08:00 +10°C° 0 mm 7 m/s 752 mmHg 57%
    09:00 +12°C° 0 mm 7 m/s 752 mmHg 58%
    10:00 +14°C° 0 mm 7 m/s 752 mmHg 58%
    11:00 +15°C° 0 mm 7 m/s 752 mmHg 59%
    12:00 +16°C° 0 mm 7 m/s 752 mmHg 59%
    13:00 +17°C° 0 mm 7 m/s 752 mmHg 59%
    14:00 +18°C° 0 mm 7 m/s 752 mmHg 59%
    15:00 +18°C° 0 mm 7 m/s 752 mmHg 62%
    16:00 +19°C° 0 mm 6 m/s 751 mmHg 64%
    17:00 +17°C° 0 mm 5 m/s 751 mmHg 67%
    18:00 +16°C° 0 mm 5 m/s 751 mmHg 71%
    19:00 +15°C° 0 mm 4 m/s 751 mmHg 75%
    20:00 +14°C° 0 mm 4 m/s 751 mmHg 79%
    21:00 +14°C° 0 mm 4 m/s 751 mmHg 80%
    22:00 +14°C° 0 mm 4 m/s 751 mmHg 81%
    23:00 +13°C° 0 mm 4 m/s 751 mmHg 82%

    28 Septembre, Vendredi

    Heure Température Précipitation Vent Pression Humidité
    00:00 +13°C° 0 mm 4 m/s 751 mmHg 85%
    01:00 +12°C° 0 mm 4 m/s 751 mmHg 87%
    02:00 +12°C° 0 mm 4 m/s 751 mmHg 90%
    03:00 +12°C° 0 mm 4 m/s 750 mmHg 91%
    04:00 +12°C° 0 mm 4 m/s 750 mmHg 92%
    05:00 +12°C° 0 mm 4 m/s 750 mmHg 93%
    06:00 +12°C° 0 mm 5 m/s 749 mmHg 90%
    07:00 +13°C° 0 mm 5 m/s 749 mmHg 87%
    08:00 +14°C° 0 mm 6 m/s 749 mmHg 83%
    09:00 +15°C° 0 mm 6 m/s 749 mmHg 77%
    10:00 +17°C° 0 mm 6 m/s 749 mmHg 71%
    11:00 +20°C° 0 mm 6 m/s 749 mmHg 64%
    12:00 +20°C° 0 mm 6 m/s 748 mmHg 63%
    13:00 +21°C° 0 mm 6 m/s 748 mmHg 62%
    14:00 +21°C° 0 mm 6 m/s 748 mmHg 61%
    15:00 +20°C° 0 mm 5 m/s 748 mmHg 64%
    16:00 +19°C° 0 mm 4 m/s 747 mmHg 68%
    17:00 +18°C° 0 mm 3 m/s 747 mmHg 71%
    18:00 +17°C° 0 mm 3 m/s 748 mmHg 74%
    19:00 +16°C° 0 mm 3 m/s 748 mmHg 77%
    20:00 +15°C° 0 mm 2 m/s 748 mmHg 81%
    21:00 +14°C° 0 mm 2 m/s 748 mmHg 81%
    22:00 +13°C° 0 mm 2 m/s 748 mmHg 81%
    23:00 +12°C° 0 mm 2 m/s 748 mmHg 81%

    29 Septembre, Samedi

    Heure Température Précipitation Vent Pression Humidité
    00:00 +12°C° 0 mm 2 m/s 748 mmHg 78%
    01:00 +12°C° 0 mm 2 m/s 749 mmHg 75%
    02:00 +12°C° 0 mm 2 m/s 749 mmHg 71%
    03:00 +10°C° 0 mm 3 m/s 749 mmHg 73%
    04:00 +10°C° 0 mm 3 m/s 749 mmHg 74%
    05:00 +9°C° 0 mm 3 m/s 749 mmHg 75%
    06:00 +9°C° 0.5 mm 3 m/s 750 mmHg 78%
    07:00 +8°C° 0.5 mm 3 m/s 750 mmHg 81%
    08:00 +7°C° 0.5 mm 3 m/s 751 mmHg 84%
    09:00 +8°C° 0.1 mm 3 m/s 751 mmHg 78%
    10:00 +9°C° 0.1 mm 3 m/s 752 mmHg 71%
    11:00 +10°C° 0.1 mm 4 m/s 753 mmHg 64%
    12:00 +11°C° 0 mm 4 m/s 753 mmHg 59%
    13:00 +12°C° 0 mm 4 m/s 753 mmHg 54%
    14:00 +12°C° 0 mm 5 m/s 753 mmHg 49%
    15:00 +12°C° 0 mm 4 m/s 753 mmHg 50%
    16:00 +11°C° 0 mm 4 m/s 753 mmHg 52%
    17:00 +11°C° 0 mm 3 m/s 753 mmHg 53%
    18:00 +9°C° 0 mm 3 m/s 754 mmHg 57%
    19:00 +8°C° 0 mm 3 m/s 754 mmHg 61%
    20:00 +7°C° 0 mm 2 m/s 755 mmHg 65%
    21:00 +6°C° 0 mm 2 m/s 755 mmHg 67%
    22:00 +6°C° 0 mm 2 m/s 755 mmHg 68%
    23:00 +5°C° 0 mm 2 m/s 756 mmHg 69%
    Voir plus